This is the latest recevied weather packets stored in our database for station/object HA3YA-WX. If no packets are shown the sender has not sent any weather packets the latest 10 day(s).
| Time | Temp. | Humidity | Pressure | Rain* | Wind** | Luminosity | Snow |
|---|---|---|---|---|---|---|---|
| 1777308692 | 18.33° C | 27% | 1006.3 hPa | - | - | - | - |
| 1777308092 | 18.89° C | 27% | 1006.3 hPa | - | - | - | - |
| 1777307495 | 19.44° C | 26% | 1006.3 hPa | - | - | - | - |
| 1777306892 | 19.44° C | 26% | 1006 hPa | - | - | - | - |
| 1777306292 | 21.67° C | 25% | 1006 hPa | - | - | - | - |
| 1777305692 | 22.22° C | 26% | 1006 hPa | - | - | - | - |
| 1777305092 | 22.22° C | 26% | 1006 hPa | - | - | - | - |
| 1777304492 | 21.67° C | 27% | 1006.8 hPa | - | - | - | - |
| 1777303892 | 21.11° C | 27% | 1006.8 hPa | - | - | - | - |
| 1777303292 | 21.11° C | 28% | 1006 hPa | - | - | - | - |
| 1777302692 | 21.11° C | 28% | 1006 hPa | - | - | - | - |
| 1777302092 | 21.11° C | 29% | 1007 hPa | - | - | - | - |
| 1777301492 | 20.56° C | 29% | 1007 hPa | - | - | - | - |
| 1777300893 | 21.11° C | 29% | 1007.4 hPa | - | - | - | - |
| 1777300292 | 21.67° C | 29% | 1007.4 hPa | - | - | - | - |
| 1777299692 | 21.67° C | 28% | 1007 hPa | - | - | - | - |
| 1777299092 | 21.67° C | 27% | 1007 hPa | - | - | - | - |
| 1777298492 | 21.67° C | 28% | 1007 hPa | - | - | - | - |
| 1777297892 | 21.67° C | 28% | 1007 hPa | - | - | - | - |
| 1777297294 | 22.22° C | 29% | 1008.1 hPa | - | - | - | - |
| 1777296692 | 22.22° C | 29% | 1008.1 hPa | - | - | - | - |
| 1777296092 | 22.22° C | 29% | 1008 hPa | - | - | - | - |
| 1777295492 | 22.22° C | 29% | 1008 hPa | - | - | - | - |
| 1777294892 | 22.22° C | 29% | 1008 hPa | - | - | - | - |
| 1777294292 | 22.22° C | 29% | 1008 hPa | - | - | - | - |
* Rain since midnight (hover to see other rain measurements)
** Current wind speed in m/s (hover to see current wind gust speed)